Home   Weather   Bari   Past weeks

Flag for Italy Past Weather in Bari, Italy — Yesterday and Last 2 Weeks

Now
57 °F

Passing clouds.


Feels Like: 56 °F
Forecast: 44 / 57 °F
Wind: 7 mph from Northeast

Location: Bari / Palese Macchie

Current Time: Dec 5, 2016 at 3:49:20 pm

Latest Report: Dec 5, 2016 at 3:20 pm


Visibility: N/A

Pressure: 30.33 "Hg

Humidity: 77%

Dew Point: 50 °F

Location of BariLocation

Past Weather in Bari — Graph

°F

Bari Temperature Yesterday

Maximum temperature yesterday: 57 °F (at 12:20 pm)
Minimum temperature yesterday: 41 °F (at 4:20 am)
Average temperature yesterday: 48 °F

High & Low Weather Summary for the Past Weeks

 TemperatureHumidityPressure
High70 °F (Nov 22, 12:20 pm)100% (Nov 22, 12:50 am)30.36 "Hg (Nov 22, 12:50 am)
Low34 °F (Dec 2, 5:50 am)36% (Dec 1, 12:50 pm)29.77 "Hg (Nov 28, 4:20 am)
Average54 °F79%30.09 "Hg
* Reported Nov 20 2:20 pm — Dec 5 2:20 pm, Bari, Weather by CustomWeather, © 2016

Note: Actual official high and low records may vary slightly from our data, if they occured in-between our weather recording intervals... More about our weather records

Advertising

Bari Weather History for the Previous 24 Hours

Scroll right to see more
 ConditionsComfort  
Time TempWeatherWind HumidityBarometerVisibility
2:20 pm
Mon, Dec 5
57 °FPassing clouds.7 mph77%30.33 "HgN/A
1:50 pm57 °FPassing clouds.7 mph77%30.33 "HgN/A
12:50 pm57 °FPassing clouds.6 mphN/A30.33 "HgN/A
12:20 pm57 °FPassing clouds.7 mph72%30.36 "HgN/A
11:50 am57 °FPassing clouds.6 mph72%30.36 "HgN/A
11:20 am57 °FPassing clouds.5 mph77%30.36 "HgN/A
10:50 am57 °FSunny.3 mph72%30.36 "Hg10 mi
10:20 am55 °FPassing clouds.7 mph77%30.36 "HgN/A
9:50 am54 °FPassing clouds.6 mph82%30.36 "HgN/A
9:20 am52 °FPassing clouds.6 mph88%30.36 "Hg5 mi
8:50 am48 °FPassing clouds.5 mph94%30.36 "Hg4 mi
8:20 am45 °FPassing clouds.5 mph100%30.36 "Hg4 mi
7:50 am41 °FPassing clouds.6 mph100%30.33 "Hg4 mi
7:20 am41 °FPassing clouds.5 mph93%30.33 "Hg4 mi
6:50 am39 °FPassing clouds.5 mph100%30.33 "Hg4 mi
5:50 am41 °FClear.6 mph93%30.33 "Hg4 mi
5:20 am41 °FClear.5 mph93%30.33 "Hg4 mi
4:50 am39 °FClear.7 mph100%30.30 "Hg4 mi
3:50 am39 °FClear.6 mph100%30.33 "Hg4 mi
3:20 am39 °FClear.3 mph100%30.33 "Hg4 mi
2:50 am39 °FClear.6 mph100%30.33 "Hg4 mi
2:20 am41 °FClear.6 mph100%30.33 "Hg4 mi
1:50 am41 °FClear.6 mph100%30.33 "Hg4 mi
1:20 am41 °FClear.5 mph100%30.30 "Hg4 mi
12:50 am43 °FClear.6 mph93%30.30 "Hg4 mi
12:20 am43 °FClear.6 mph93%30.30 "Hg4 mi
11:50 pm
Sun, Dec 4
43 °FClear.8 mph93%30.30 "Hg4 mi
11:20 pm43 °FClear.7 mph93%30.30 "Hg4 mi
10:50 pm43 °FClear.6 mph100%30.30 "Hg4 mi
10:20 pm43 °FClear.7 mph100%30.30 "Hg4 mi
9:50 pm43 °FClear.7 mph100%30.30 "Hg4 mi
9:20 pm43 °FClear.7 mph100%30.30 "Hg4 mi
8:50 pm45 °FClear.7 mph93%30.30 "Hg4 mi
8:20 pm45 °FClear.7 mph93%30.30 "Hg4 mi
7:50 pm45 °FClear.7 mph93%30.27 "Hg4 mi
7:20 pm45 °FClear.7 mph93%30.27 "Hg4 mi
6:50 pm45 °FClear.6 mph93%30.27 "Hg4 mi
6:20 pm46 °FPassing clouds.6 mph93%30.27 "Hg4 mi
5:50 pm46 °FPassing clouds.5 mph93%30.24 "HgN/A
5:20 pm48 °FPassing clouds.2 mph94%30.24 "HgN/A
4:50 pm52 °FPassing clouds.2 mph88%30.24 "HgN/A
4:20 pm54 °FPassing clouds.2 mph82%30.24 "HgN/A
3:50 pm55 °FPassing clouds.2 mph77%30.24 "HgN/A
3:20 pm55 °FPassing clouds.3 mph82%30.24 "HgN/A
Weather by CustomWeather, © 2016

See weather overviewHow to use our weather pages